LLM2116 USDD-USTR

Flight info

Callsign LLM2116
Flight time 1h 33m
Altitude 34000
Route DIPAR1N DIPAR N167 DELEN DELEN1L
Aircraft A321/M-SDE3FGHIRWY/LB1

Departure

Time 2026-04-20 17:15
Airport Salekhard Airport (USDD)

Arrival

Time 2026-04-20 18:48
Airport Roshchino International Airport (USTR)
Time Latitude Longitude Altitude Speed Heading
2026-04-20 16:42 66.59109 66.58858 252 ft 0 kts 228°
2026-04-20 17:04 66.59109 66.58860 252 ft 1 kts 228°
2026-04-20 17:04 66.59119 66.58888 252 ft 2 kts 228°
2026-04-20 17:05 66.59125 66.58905 252 ft 2 kts 227°
2026-04-20 17:05 66.59138 66.58923 253 ft 2 kts 184°
2026-04-20 17:05 66.59152 66.58917 254 ft 2 kts 151°
2026-04-20 17:05 66.59158 66.58907 255 ft 1 kts 133°
2026-04-20 17:06 66.59161 66.58899 255 ft 0 kts 138°
2026-04-20 17:09 66.59145 66.58935 253 ft 7 kts 139°
2026-04-20 17:09 66.59087 66.59063 247 ft 14 kts 139°
2026-04-20 17:09 66.59056 66.59171 244 ft 4 kts 88°
2026-04-20 17:10 66.59042 66.59283 242 ft 16 kts 130°
2026-04-20 17:10 66.58955 66.59482 233 ft 18 kts 139°
2026-04-20 17:10 66.58903 66.59585 228 ft 11 kts 148°
2026-04-20 17:10 66.58817 66.59712 220 ft 16 kts 151°
2026-04-20 17:11 66.58808 66.59927 220 ft 14 kts 63°
2026-04-20 17:11 66.58858 66.60169 219 ft 18 kts 63°
2026-04-20 17:11 66.58936 66.60538 216 ft 29 kts 61°
2026-04-20 17:11 66.59050 66.61066 206 ft 40 kts 62°
2026-04-20 17:12 66.59190 66.61716 191 ft 42 kts 63°
2026-04-20 17:12 66.59328 66.62379 181 ft 42 kts 60°
2026-04-20 17:12 66.59467 66.62995 182 ft 34 kts 61°
2026-04-20 17:12 66.59573 66.63479 187 ft 25 kts 60°
2026-04-20 17:13 66.59629 66.63617 191 ft 5 kts 24°
2026-04-20 17:13 66.59656 66.63664 192 ft 4 kts 44°
2026-04-20 17:13 66.59660 66.63731 193 ft 5 kts 120°
2026-04-20 17:13 66.59627 66.63715 192 ft 7 kts 237°
2026-04-20 17:14 66.59624 66.63704 192 ft 0 kts 240°
2026-04-20 17:14 66.59567 66.63447 187 ft 51 kts 242°
2026-04-20 17:14 66.59268 66.62073 185 ft 125 kts 241°
2026-04-20 17:14 66.58765 66.59745 368 ft 168 kts 241°
2026-04-20 17:15 66.58186 66.57139 974 ft 180 kts 236°
2026-04-20 17:15 66.57198 66.55400 1780 ft 182 kts 195°
2026-04-20 17:15 66.55978 66.55012 2498 ft 181 kts 188°
2026-04-20 17:15 66.54678 66.54589 2903 ft 196 kts 190°
2026-04-20 17:16 66.53269 66.53996 3242 ft 217 kts 192°
2026-04-20 17:16 66.51720 66.53233 3708 ft 235 kts 193°
2026-04-20 17:16 66.50079 66.52364 4176 ft 252 kts 193°
2026-04-20 17:16 66.48349 66.51412 4854 ft 261 kts 194°
2026-04-20 17:17 66.46583 66.50424 5648 ft 265 kts 194°
2026-04-20 17:17 66.44773 66.49405 6463 ft 269 kts 194°
2026-04-20 17:17 66.42955 66.48377 7222 ft 274 kts 194°
2026-04-20 17:17 66.41086 66.47320 7969 ft 278 kts 194°
2026-04-20 17:18 66.39208 66.46258 8741 ft 282 kts 194°
2026-04-20 17:18 66.37264 66.45158 9457 ft 287 kts 194°
2026-04-20 17:18 66.35322 66.44062 10142 ft 291 kts 194°
2026-04-20 17:18 66.33358 66.42955 10774 ft 298 kts 194°
2026-04-20 17:19 66.31292 66.41791 11125 ft 313 kts 194°
2026-04-20 17:19 66.29114 66.40564 11447 ft 329 kts 194°
2026-04-20 17:19 66.26852 66.39294 11784 ft 342 kts 194°
2026-04-20 17:19 66.24526 66.37993 12368 ft 348 kts 194°
2026-04-20 17:20 66.22167 66.36675 13033 ft 351 kts 194°
2026-04-20 17:20 66.19769 66.35340 13651 ft 355 kts 194°
2026-04-20 17:20 66.17361 66.34000 14224 ft 359 kts 193°
2026-04-20 17:20 66.14922 66.32626 14795 ft 362 kts 193°
2026-04-20 17:21 66.12504 66.31135 15358 ft 366 kts 194°
2026-04-20 17:21 66.10029 66.29559 15911 ft 370 kts 195°
2026-04-20 17:21 66.07533 66.27969 16434 ft 375 kts 194°
2026-04-20 17:21 66.04994 66.26363 16965 ft 378 kts 194°
2026-04-20 17:22 66.02452 66.24765 17486 ft 382 kts 194°
2026-04-20 17:22 65.99895 66.23167 17985 ft 385 kts 194°
2026-04-20 17:22 65.97289 66.21545 18487 ft 389 kts 194°
2026-04-20 17:22 65.94669 66.19919 18962 ft 392 kts 195°
2026-04-20 17:23 65.92054 66.18299 19426 ft 396 kts 195°
2026-04-20 17:23 65.89374 66.16640 19885 ft 399 kts 195°
2026-04-20 17:23 65.86672 66.14973 20325 ft 402 kts 194°
2026-04-20 17:23 65.83967 66.13308 20768 ft 405 kts 194°
2026-04-20 17:24 65.81249 66.11641 21184 ft 407 kts 194°
2026-04-20 17:24 65.78520 66.09972 21595 ft 410 kts 195°
2026-04-20 17:24 65.75764 66.08287 21992 ft 413 kts 195°
2026-04-20 17:24 65.72947 66.06567 22374 ft 416 kts 195°
2026-04-20 17:25 65.70149 66.04856 22753 ft 419 kts 195°
2026-04-20 17:25 65.67341 66.03142 23122 ft 421 kts 195°
2026-04-20 17:25 65.64493 66.01408 23486 ft 424 kts 195°
2026-04-20 17:25 65.61642 65.99678 23838 ft 426 kts 195°
2026-04-20 17:26 65.58766 65.97937 24186 ft 429 kts 195°
2026-04-20 17:26 65.55901 65.96206 24529 ft 431 kts 195°
2026-04-20 17:26 65.52975 65.94443 24865 ft 433 kts 195°
2026-04-20 17:26 65.50065 65.92694 25172 ft 436 kts 195°
2026-04-20 17:27 65.47134 65.90938 25480 ft 438 kts 195°
2026-04-20 17:27 65.44177 65.89156 25814 ft 439 kts 195°
2026-04-20 17:27 65.41255 65.87430 26103 ft 441 kts 195°
2026-04-20 17:27 65.38244 65.85661 26391 ft 443 kts 195°
2026-04-20 17:28 65.35256 65.83901 26705 ft 445 kts 195°
2026-04-20 17:28 65.32282 65.82143 27015 ft 446 kts 195°
2026-04-20 17:28 65.29266 65.80360 27322 ft 448 kts 195°
2026-04-20 17:28 65.26239 65.78568 27612 ft 449 kts 195°
2026-04-20 17:29 65.23227 65.76780 27894 ft 451 kts 195°
2026-04-20 17:29 65.20199 65.74982 28180 ft 452 kts 195°
2026-04-20 17:29 65.17138 65.73167 28451 ft 454 kts 195°
2026-04-20 17:29 65.14098 65.71369 28720 ft 455 kts 196°
2026-04-20 17:30 65.11031 65.69560 28987 ft 457 kts 196°
2026-04-20 17:30 65.07967 65.67757 29226 ft 458 kts 196°
2026-04-20 17:30 65.04881 65.65945 29440 ft 460 kts 196°
2026-04-20 17:30 65.01769 65.64123 29654 ft 461 kts 196°
2026-04-20 17:31 64.98689 65.62323 29877 ft 462 kts 196°
2026-04-20 17:31 64.95530 65.60484 30172 ft 461 kts 196°
2026-04-20 17:31 64.92461 65.58704 30460 ft 460 kts 196°
2026-04-20 17:31 64.89368 65.56918 30748 ft 459 kts 196°
2026-04-20 17:32 64.86241 65.55123 31013 ft 458 kts 196°
2026-04-20 17:32 64.83164 65.53359 31234 ft 457 kts 196°
2026-04-20 17:32 64.80081 65.51598 31433 ft 457 kts 197°
2026-04-20 17:32 64.76994 65.49834 31639 ft 456 kts 197°
2026-04-20 17:33 64.73946 65.48096 31817 ft 456 kts 197°
2026-04-20 17:33 64.70853 65.46335 31989 ft 456 kts 197°
2026-04-20 17:33 64.67787 65.44598 32173 ft 456 kts 197°
2026-04-20 17:33 64.64740 65.42873 32358 ft 456 kts 197°
2026-04-20 17:34 64.61637 65.41120 32517 ft 456 kts 197°
2026-04-20 17:34 64.58563 65.39389 32677 ft 456 kts 197°
2026-04-20 17:34 64.55502 65.37670 32830 ft 457 kts 197°
2026-04-20 17:34 64.52404 65.35934 32989 ft 457 kts 197°
2026-04-20 17:35 64.49358 65.34227 33134 ft 457 kts 196°
2026-04-20 17:35 64.46272 65.32504 33263 ft 459 kts 196°
2026-04-20 17:35 64.43182 65.30783 33384 ft 460 kts 196°
2026-04-20 17:35 64.40074 65.29058 33518 ft 460 kts 196°
2026-04-20 17:36 64.36932 65.27317 33670 ft 461 kts 197°
2026-04-20 17:36 64.33859 65.25617 33824 ft 461 kts 196°
2026-04-20 17:36 64.30740 65.23896 33993 ft 461 kts 197°
2026-04-20 17:36 64.27634 65.22185 34160 ft 462 kts 196°
2026-04-20 17:37 64.24487 65.20455 34283 ft 464 kts 196°
2026-04-20 17:37 64.18182 65.17005 34300 ft 474 kts 196°
2026-04-20 17:38 64.11739 65.13496 34313 ft 481 kts 197°
2026-04-20 17:38 64.05211 65.09953 34320 ft 488 kts 197°
2026-04-20 17:39 63.98596 65.06383 34326 ft 493 kts 197°
2026-04-20 17:39 63.95320 65.04633 34309 ft 481 kts 196°
2026-04-20 17:39 63.92047 65.03329 34310 ft 469 kts 191°
2026-04-20 17:40 63.85552 65.02313 34326 ft 469 kts 184°
2026-04-20 17:40 63.79028 65.01974 34326 ft 469 kts 185°
2026-04-20 17:41 63.72518 65.01527 34326 ft 470 kts 185°
2026-04-20 17:41 63.66035 65.01083 34326 ft 469 kts 185°
2026-04-20 17:42 63.59532 65.00620 34321 ft 469 kts 185°
2026-04-20 17:42 63.52990 65.00145 34324 ft 468 kts 186°
2026-04-20 17:43 63.46509 64.99678 34317 ft 467 kts 186°
2026-04-20 17:43 63.40079 64.99217 34318 ft 467 kts 186°
2026-04-20 17:44 63.33617 64.98757 34316 ft 467 kts 186°
2026-04-20 17:44 63.27125 64.98293 34321 ft 466 kts 186°
2026-04-20 17:45 63.20714 64.97840 34316 ft 466 kts 186°
2026-04-20 17:45 63.14249 64.97386 34317 ft 465 kts 186°
2026-04-20 17:46 63.07800 64.96932 34313 ft 464 kts 186°
2026-04-20 17:46 63.01412 64.96487 34316 ft 464 kts 186°
2026-04-20 17:47 62.94945 64.96038 34331 ft 464 kts 186°
2026-04-20 17:47 62.88517 64.95596 34329 ft 464 kts 187°
2026-04-20 17:48 62.82088 64.95152 34310 ft 463 kts 187°
2026-04-20 17:48 62.75709 64.94714 34311 ft 463 kts 187°
2026-04-20 17:49 62.69284 64.94273 34294 ft 462 kts 187°
2026-04-20 17:49 62.62867 64.93838 34303 ft 462 kts 187°
2026-04-20 17:50 62.56463 64.93405 34305 ft 462 kts 187°
2026-04-20 17:50 62.50086 64.92973 34301 ft 461 kts 187°
2026-04-20 17:51 62.43705 64.92540 34303 ft 461 kts 187°
2026-04-20 17:51 62.37324 64.92101 34283 ft 460 kts 187°
2026-04-20 17:52 62.30998 64.91666 34294 ft 460 kts 187°
2026-04-20 17:52 62.24623 64.91233 34287 ft 459 kts 188°
2026-04-20 17:53 62.18251 64.90802 34286 ft 459 kts 188°
2026-04-20 17:53 62.11917 64.90371 34279 ft 458 kts 188°
2026-04-20 17:54 62.05597 64.89945 34274 ft 456 kts 188°
2026-04-20 17:54 61.99274 64.89517 34296 ft 456 kts 188°
2026-04-20 17:55 61.92931 64.89111 34288 ft 457 kts 188°
2026-04-20 17:55 61.86593 64.88894 34294 ft 458 kts 187°
2026-04-20 17:56 61.80252 64.88704 34277 ft 456 kts 188°
2026-04-20 17:56 61.73962 64.88500 34285 ft 456 kts 188°
2026-04-20 17:57 61.67626 64.88286 34259 ft 455 kts 188°
2026-04-20 17:57 61.61313 64.88075 34273 ft 455 kts 188°
2026-04-20 17:58 61.55013 64.87862 34267 ft 456 kts 188°
2026-04-20 17:58 61.48696 64.87654 34261 ft 454 kts 188°
2026-04-20 17:59 61.42390 64.87444 34264 ft 455 kts 189°
2026-04-20 17:59 61.36080 64.87237 34265 ft 454 kts 189°
2026-04-20 18:00 61.29818 64.87026 34262 ft 453 kts 189°
2026-04-20 18:00 61.23561 64.86823 34258 ft 453 kts 189°
2026-04-20 18:01 61.17279 64.86613 34253 ft 453 kts 189°
2026-04-20 18:01 61.11011 64.86407 34265 ft 452 kts 189°
2026-04-20 18:02 61.04732 64.86195 34257 ft 452 kts 189°
2026-04-20 18:02 60.98509 64.85988 34264 ft 451 kts 190°
2026-04-20 18:03 60.92274 64.85782 34261 ft 449 kts 190°
2026-04-20 18:03 60.86057 64.85572 34244 ft 449 kts 190°
2026-04-20 18:04 60.79843 64.85367 34247 ft 448 kts 190°
2026-04-20 18:04 60.73644 64.85161 34242 ft 448 kts 190°
2026-04-20 18:05 60.64324 64.84858 34240 ft 447 kts 190°
2026-04-20 18:05 60.58145 64.84656 34239 ft 446 kts 190°
2026-04-20 18:06 60.51998 64.84455 34235 ft 445 kts 190°
2026-04-20 18:06 60.45819 64.84252 34223 ft 444 kts 190°
2026-04-20 18:07 60.39651 64.84058 34226 ft 443 kts 189°
2026-04-20 18:07 60.33541 64.83865 34219 ft 442 kts 190°
2026-04-20 18:08 60.27370 64.83669 34218 ft 443 kts 189°
2026-04-20 18:08 60.21247 64.83479 34219 ft 442 kts 189°
2026-04-20 18:09 60.15110 64.83288 34208 ft 441 kts 189°
2026-04-20 18:09 60.08988 64.83105 34206 ft 442 kts 189°
2026-04-20 18:10 60.02869 64.82948 34199 ft 441 kts 189°
2026-04-20 18:10 59.96714 64.82791 34194 ft 441 kts 189°
2026-04-20 18:11 59.90645 64.82636 34190 ft 440 kts 189°
2026-04-20 18:11 59.84524 64.82481 34187 ft 440 kts 189°
2026-04-20 18:12 59.78419 64.82326 34186 ft 440 kts 189°
2026-04-20 18:12 59.72342 64.82172 34180 ft 438 kts 189°
2026-04-20 18:13 59.66270 64.82021 34175 ft 439 kts 189°
2026-04-20 18:13 59.60105 64.81864 34171 ft 441 kts 188°
2026-04-20 18:14 59.53972 64.81715 34166 ft 440 kts 189°
2026-04-20 18:14 59.47907 64.81561 34162 ft 440 kts 188°
2026-04-20 18:15 59.41802 64.81412 34159 ft 440 kts 188°
2026-04-20 18:15 59.35699 64.81265 34158 ft 438 kts 188°
2026-04-20 18:16 59.29636 64.81122 34123 ft 435 kts 188°
2026-04-20 18:16 59.26646 64.81055 33813 ft 431 kts 188°
2026-04-20 18:16 59.23673 64.80984 33096 ft 434 kts 188°
2026-04-20 18:17 59.20627 64.80908 32235 ft 438 kts 188°
2026-04-20 18:17 59.17602 64.80833 31420 ft 441 kts 188°
2026-04-20 18:17 59.14542 64.80757 30557 ft 444 kts 188°
2026-04-20 18:17 59.11459 64.80679 29757 ft 443 kts 187°
2026-04-20 18:18 59.08454 64.80616 29484 ft 431 kts 187°
2026-04-20 18:18 59.05506 64.80562 29178 ft 420 kts 188°
2026-04-20 18:18 59.02604 64.80497 28641 ft 415 kts 187°
2026-04-20 18:18 58.99749 64.80428 28039 ft 413 kts 188°
2026-04-20 18:19 58.96873 64.80357 27423 ft 410 kts 187°
2026-04-20 18:19 58.94038 64.80283 26821 ft 407 kts 187°
2026-04-20 18:19 58.91253 64.80216 26249 ft 404 kts 187°
2026-04-20 18:19 58.88453 64.80151 25670 ft 401 kts 187°
2026-04-20 18:20 58.85696 64.80087 25112 ft 398 kts 186°
2026-04-20 18:20 58.82930 64.80021 24559 ft 396 kts 186°
2026-04-20 18:20 58.80182 64.79956 24019 ft 393 kts 186°
2026-04-20 18:20 58.77464 64.79892 23495 ft 391 kts 186°
2026-04-20 18:21 58.74770 64.79829 23018 ft 388 kts 186°
2026-04-20 18:21 58.72057 64.79764 22539 ft 385 kts 186°
2026-04-20 18:21 58.69410 64.79701 22057 ft 382 kts 186°
2026-04-20 18:21 58.66782 64.79640 21582 ft 379 kts 185°
2026-04-20 18:22 58.64146 64.79580 21123 ft 376 kts 185°
2026-04-20 18:22 58.61556 64.79520 20650 ft 373 kts 185°
2026-04-20 18:22 58.58979 64.79460 20180 ft 370 kts 185°
2026-04-20 18:22 58.56402 64.79401 19754 ft 366 kts 185°
2026-04-20 18:23 58.53872 64.79340 19310 ft 364 kts 185°
2026-04-20 18:23 58.51369 64.79278 18866 ft 361 kts 185°
2026-04-20 18:23 58.48865 64.79220 18418 ft 358 kts 185°
2026-04-20 18:23 58.46386 64.79166 17944 ft 356 kts 185°
2026-04-20 18:24 58.43948 64.79108 17478 ft 353 kts 184°
2026-04-20 18:24 58.41511 64.79054 17020 ft 351 kts 185°
2026-04-20 18:24 58.39086 64.78999 16582 ft 348 kts 184°
2026-04-20 18:24 58.36647 64.78941 16124 ft 346 kts 184°
2026-04-20 18:25 58.34272 64.78888 15673 ft 343 kts 184°
2026-04-20 18:25 58.31912 64.78833 15224 ft 341 kts 184°
2026-04-20 18:25 58.29537 64.78780 14793 ft 337 kts 184°
2026-04-20 18:25 58.27207 64.78732 14532 ft 337 kts 184°
2026-04-20 18:26 58.24854 64.78680 14278 ft 337 kts 185°
2026-04-20 18:26 58.22516 64.78628 14030 ft 335 kts 185°
2026-04-20 18:26 58.20197 64.78574 13768 ft 333 kts 184°
2026-04-20 18:26 58.17884 64.78521 13504 ft 331 kts 184°
2026-04-20 18:27 58.15584 64.78469 13244 ft 326 kts 184°
2026-04-20 18:27 58.13374 64.78428 12979 ft 309 kts 185°
2026-04-20 18:27 58.11272 64.78384 12714 ft 301 kts 184°
2026-04-20 18:27 58.09200 64.78336 12462 ft 299 kts 184°
2026-04-20 18:28 58.07114 64.78284 12206 ft 298 kts 184°
2026-04-20 18:28 58.05037 64.78360 11950 ft 299 kts 179°
2026-04-20 18:28 58.02985 64.78828 11699 ft 300 kts 173°
2026-04-20 18:28 58.00956 64.79711 11441 ft 299 kts 167°
2026-04-20 18:29 57.98980 64.80912 11178 ft 297 kts 165°
2026-04-20 18:29 57.97037 64.82146 10915 ft 295 kts 165°
2026-04-20 18:29 57.95119 64.83366 10656 ft 292 kts 165°
2026-04-20 18:29 57.93212 64.84577 10393 ft 290 kts 165°
2026-04-20 18:30 57.91299 64.85784 10120 ft 288 kts 165°
2026-04-20 18:30 57.89421 64.86966 9860 ft 286 kts 165°
2026-04-20 18:30 57.87527 64.88157 9603 ft 285 kts 165°
2026-04-20 18:30 57.85666 64.89322 9337 ft 283 kts 165°
2026-04-20 18:31 57.83823 64.90474 9074 ft 275 kts 165°
2026-04-20 18:31 57.82033 64.91594 8813 ft 271 kts 165°
2026-04-20 18:31 57.80238 64.92713 8556 ft 265 kts 165°
2026-04-20 18:31 57.78519 64.93786 8351 ft 262 kts 165°
2026-04-20 18:32 57.76789 64.94864 8140 ft 262 kts 165°
2026-04-20 18:32 57.75062 64.95939 7929 ft 261 kts 165°
2026-04-20 18:32 57.73335 64.97014 7709 ft 260 kts 165°
2026-04-20 18:32 57.71628 64.98075 7508 ft 259 kts 165°
2026-04-20 18:33 57.69918 64.99136 7302 ft 258 kts 165°
2026-04-20 18:33 57.68235 65.00179 7091 ft 257 kts 164°
2026-04-20 18:33 57.66545 65.01224 6882 ft 256 kts 164°
2026-04-20 18:33 57.64854 65.02271 6670 ft 252 kts 164°
2026-04-20 18:34 57.63212 65.03287 6458 ft 246 kts 164°
2026-04-20 18:34 57.61607 65.04253 6238 ft 240 kts 167°
2026-04-20 18:34 57.59994 65.04853 6049 ft 233 kts 175°
2026-04-20 18:34 57.58390 65.04988 5916 ft 232 kts 183°
2026-04-20 18:35 57.56782 65.04735 5785 ft 231 kts 187°
2026-04-20 18:35 57.55178 65.04388 5655 ft 231 kts 187°
2026-04-20 18:35 57.53587 65.04035 5525 ft 232 kts 187°
2026-04-20 18:35 57.51991 65.03686 5388 ft 231 kts 187°
2026-04-20 18:36 57.50376 65.03335 5251 ft 231 kts 187°
2026-04-20 18:36 57.48780 65.02991 5118 ft 231 kts 186°
2026-04-20 18:36 57.47191 65.02651 4985 ft 230 kts 186°
2026-04-20 18:36 57.45614 65.02315 4849 ft 230 kts 186°
2026-04-20 18:37 57.44008 65.01972 4713 ft 230 kts 186°
2026-04-20 18:37 57.42432 65.01637 4579 ft 229 kts 185°
2026-04-20 18:37 57.40860 65.01302 4447 ft 229 kts 185°
2026-04-20 18:37 57.39275 65.00966 4313 ft 228 kts 185°
2026-04-20 18:38 57.37717 65.00637 4182 ft 227 kts 185°
2026-04-20 18:38 57.36127 65.00302 4052 ft 227 kts 184°
2026-04-20 18:38 57.34555 64.99970 3917 ft 228 kts 184°
2026-04-20 18:38 57.32996 64.99643 3778 ft 227 kts 184°
2026-04-20 18:39 57.31431 64.99313 3641 ft 226 kts 184°
2026-04-20 18:39 57.29881 64.98988 3509 ft 225 kts 184°
2026-04-20 18:39 57.28333 64.98663 3381 ft 226 kts 184°
2026-04-20 18:39 57.26763 64.98334 3244 ft 226 kts 184°
2026-04-20 18:40 57.25194 64.98003 3109 ft 226 kts 183°
2026-04-20 18:40 57.23628 64.97673 2982 ft 226 kts 183°
2026-04-20 18:40 57.22093 64.97353 2973 ft 222 kts 183°
2026-04-20 18:40 57.20580 64.97032 2957 ft 210 kts 182°
2026-04-20 18:41 57.19162 64.96733 2953 ft 204 kts 182°
2026-04-20 18:41 57.17754 64.96439 2732 ft 203 kts 182°
2026-04-20 18:41 57.16343 64.96145 2454 ft 204 kts 181°
2026-04-20 18:41 57.14939 64.95940 2216 ft 200 kts 168°
2026-04-20 18:42 57.13719 64.96886 2180 ft 188 kts 134°
2026-04-20 18:42 57.12788 64.98518 2281 ft 180 kts 131°
2026-04-20 18:42 57.11912 65.00037 2204 ft 166 kts 131°
2026-04-20 18:42 57.11076 65.01472 2175 ft 163 kts 131°
2026-04-20 18:43 57.10244 65.02894 2174 ft 163 kts 131°
2026-04-20 18:43 57.09408 65.04311 2176 ft 163 kts 131°
2026-04-20 18:43 57.08572 65.05723 2172 ft 164 kts 131°
2026-04-20 18:43 57.07761 65.07168 2173 ft 161 kts 122°
2026-04-20 18:44 57.07527 65.09050 2147 ft 153 kts 72°
2026-04-20 18:44 57.08136 65.10588 2177 ft 149 kts 49°
2026-04-20 18:44 57.08877 65.11917 2178 ft 149 kts 48°
2026-04-20 18:44 57.09605 65.13265 2177 ft 149 kts 50°
2026-04-20 18:45 57.10306 65.14629 2211 ft 144 kts 51°
2026-04-20 18:45 57.10977 65.15978 2048 ft 140 kts 52°
2026-04-20 18:45 57.11622 65.17293 1871 ft 137 kts 52°
2026-04-20 18:45 57.12250 65.18583 1700 ft 136 kts 51°
2026-04-20 18:46 57.12887 65.19886 1527 ft 136 kts 51°
2026-04-20 18:46 57.13521 65.21180 1367 ft 136 kts 51°
2026-04-20 18:46 57.14157 65.22453 1196 ft 136 kts 51°
2026-04-20 18:46 57.14782 65.23779 1072 ft 137 kts 51°
2026-04-20 18:47 57.15433 65.25062 860 ft 138 kts 49°
2026-04-20 18:47 57.16068 65.26376 678 ft 138 kts 50°
2026-04-20 18:47 57.16724 65.27695 497 ft 139 kts 50°
2026-04-20 18:47 57.17368 65.29009 392 ft 131 kts 49°
2026-04-20 18:48 57.17869 65.30028 392 ft 84 kts 47°
2026-04-20 18:48 57.18150 65.30592 392 ft 34 kts 47°
2026-04-20 18:48 57.18274 65.30846 392 ft 25 kts 48°
2026-04-20 18:48 57.18388 65.31076 392 ft 23 kts 47°
2026-04-20 18:49 57.18503 65.31311 392 ft 32 kts 46°
2026-04-20 18:49 57.18655 65.31615 392 ft 31 kts 47°
2026-04-20 18:49 57.18692 65.31799 392 ft 14 kts 125°
2026-04-20 18:49 57.18617 65.31930 392 ft 11 kts 138°
2026-04-20 18:50 57.18608 65.31945 392 ft 0 kts 138°
2026-04-20 18:50 57.18608 65.31946 392 ft 0 kts 138°
2026-04-20 18:50 57.18603 65.31953 392 ft 1 kts 137°
2026-04-20 18:50 57.18570 65.32009 391 ft 11 kts 137°
2026-04-20 18:51 57.18489 65.32144 391 ft 18 kts 137°
2026-04-20 18:51 57.18464 65.32318 391 ft 12 kts 89°
2026-04-20 18:51 57.18467 65.32489 391 ft 13 kts 87°
2026-04-20 18:51 57.18471 65.32667 391 ft 14 kts 88°
2026-04-20 18:52 57.18474 65.32849 391 ft 14 kts 87°
2026-04-20 18:52 57.18478 65.33038 391 ft 14 kts 88°
2026-04-20 18:52 57.18482 65.33230 391 ft 15 kts 87°
2026-04-20 18:52 57.18431 65.33391 391 ft 15 kts 134°
2026-04-20 18:53 57.18354 65.33535 391 ft 15 kts 134°
2026-04-20 18:53 57.18275 65.33682 391 ft 16 kts 134°
2026-04-20 18:53 57.18195 65.33832 391 ft 16 kts 134°
2026-04-20 18:53 57.18111 65.33986 391 ft 17 kts 134°
2026-04-20 18:54 57.18026 65.34145 391 ft 17 kts 134°
2026-04-20 18:54 57.17940 65.34305 391 ft 17 kts 134°
2026-04-20 18:54 57.17886 65.34468 391 ft 14 kts 76°
2026-04-20 18:54 57.17952 65.34607 391 ft 14 kts 44°
2026-04-20 18:55 57.17996 65.34739 391 ft 10 kts 108°
2026-04-20 18:55 57.17976 65.34804 391 ft 4 kts 110°
2026-04-20 18:55 57.17988 65.34860 391 ft 5 kts 47°
2026-04-20 18:55 57.18015 65.34909 391 ft 3 kts 42°
2026-04-20 18:56 57.18017 65.34913 391 ft 0 kts 42°